This demonstration page uses our WeatherBlox Daily Observations layout. Learn more.

Left ArrowRight Arrow

Hourly Observations for May 5, 2020

Temp ( °F °C ) Dew Point ( °F °C ) Humidity (%) Winds ( mph kmh ) Pressure ( in mb ) Visibility ( mi km ) Precip ( " mm )
12:53 am 00:53 Clear 56 13.3 45 7.2 67 67 NW 5 7 30.04 1017 10 16 0.00 0.00
1:53 am 01:53 Clear 58 14.4 46 7.8 65 65 N 3 6 30.03 1017 10 16 0.00 0.00
2:53 am 02:53 Clear 56 13.3 46 7.8 70 70 N 3 6 30.03 1017 10 16 0.00 0.00
3:53 am 03:53 Clear 54 12.2 46 7.8 75 75 Calm 30.02 1017 10 16 0.00 0.00
4:53 am 04:53 Clear 53 11.7 46 7.8 77 77 Calm 30.02 1017 10 16 0.00 0.00
6:53 am 06:53 Sunny 53 11.7 46 7.8 77 77 Calm 30.04 1017 10 16 0.00 0.00
7:53 am 07:53 Sunny 59 15 47 8.3 64 64 NNE 3 6 30.05 1018 10 16 0.00 0.00
8:53 am 08:53 Sunny 64 17.8 47 8.3 54 54 Calm 30.06 1018 10 16 0.00 0.00
9:53 am 09:53 Sunny 68 20 46 7.8 45 45 Calm 30.06 1018 10 16 0.00 0.00
10:53 am 10:53 Sunny 72 22.2 44 6.7 37 37 S 6 9 30.06 1018 10 16 0.00 0.00
11:53 am 11:53 Sunny 76 24.4 41 5 29 29 SE 5 7 30.05 1018 10 16 0.00 0.00
12:53 pm 12:53 Sunny 78 25.6 41 5 27 27 S 6 9 30.03 1017 10 16 0.00 0.00
1:53 pm 13:53 Sunny 80 26.7 41 5 25 25 S 14 22 30.02 1017 10 16 0.00 0.00
2:53 pm 14:53 Sunny 81 27.2 43 6.1 26 26 S 8 13 30.01 1016 10 16 0.00 0.00
3:53 pm 15:53 Sunny 81 27.2 42 5.6 25 25 S 7 11 30.00 1016 10 16 0.00 0.00
4:53 pm 16:53 Sunny 82 27.8 38 3.3 21 21 SSE 12 19 29.97 1015 10 16 0.00 0.00
5:53 pm 17:53 Sunny 82 27.8 38 3.3 21 21 S 13 20 29.96 1015 10 16 0.00 0.00
6:53 pm 18:53 Mostly Sunny 80 26.7 41 5 25 25 SSE 10 17 29.96 1014 10 16 0.00 0.00
7:53 pm 19:53 Mostly Cloudy 77 25 42 5.6 29 29 S 8 13 29.96 1014 10 16 0.00 0.00
8:53 pm 20:53 Mostly Cloudy 74 23.3 43 6.1 33 33 SSW 3 6 29.96 1015 10 16 0.00 0.00
9:53 pm 21:53 Clear 73 22.8 45 7.2 37 37 WSW 6 9 29.98 1015 10 16 0.00 0.00
10:53 pm 22:53 Clear 71 21.7 47 8.3 42 42 W 6 9 30.01 1016 10 16 0.00 0.00
11:53 pm 23:53 Clear 68 20 43 6.1 40 40 WNW 7 11 30.05 1018 10 16 0.00 0.00

Powered by AerisWeather